[[{"header":{"parameterUnit":"m.s-1","parameterCategory":2,"la1":30.2991,"la2":30.254,"lo1":-89.0895,"lo2":-89.0444,"dy":0.0017,"dx":0.0017,"nx":28,"ny":28,"refTime":"2023-08-08T03:00:00:Z","depth":"0","parameterNumber":2,"parameterNumberName":"U-component_of_CURRENTS"},"data":[0,0,0,0,0,0,0,0,0,0,0,0,0,0,0,0,0,0,0,0,0,0,0,0,0,0,0,0,0,0,0,0,0,0,0,0,0,0,0,0,0,0,0,0,0,0,0,0,0,0,0,0,0,0,0,0,0,0,0.0047,0.0048,0,0.0082,0.0083,0.0083,0.0126,0.0127,0.0128,0.0129,0.0261,0.0263,0.0266,0,0,0,0,0,0,0,0,0,0,0,0,0,0.0149,0.0145,0.0047,0.0048,0.0049,0.0082,0.0083,0.0083,0.0126,0.0127,0.0128,0.0129,0.026,0.0263,0.0266,0,0,0,0,0,0,0,0,0,0,0,0,0,0.0134,0.0144,0.0047,0.0076,0.0079,0.0082,0.0083,0.0083,0.0126,0.0127,0.0128,0.013,0.0259,0.0263,0.0267,0.0265,0,0,0.0279,0.0281,0,0,0,0,0,0,0,0,0.0134,0.0129,0.0071,0.0074,0.0077,0.0103,0.0167,0.0149,0.0125,0.0106,0.0129,0.013,0.0218,0.0225,0.0224,0.0271,0.0276,0.0279,0.0282,0.0283,0.0285,0,0,0,0,0,0,0,0.0135,0.0129,0.0059,0.0072,0.0076,0.0132,0.013,0.0164,0.0154,0.0107,0.0111,0.0118,0.022,0.022,0.0228,0.0278,0.0279,0.0283,0.0285,0.0287,0.0293,0.0291,0,0,0,0,0,0,0.0126,0.0129,0.0058,0.006,0.0112,0.0129,0.0126,0.0092,0.0151,0.0162,0.0117,0.012,0.0212,0.0223,0.0233,0.0209,0.0283,0.0287,0.0289,0.0295,0.0292,0.029,0,0,0,0,0,0,0.0127,0.0118,0.0057,0.0101,0.0097,0.0125,0.0086,0.0092,0.0086,0.0158,0.017,0.0106,0.0214,0.0227,0.0259,0.0216,0.0289,0.0293,0.0298,0.0294,0.0291,0.0178,0,0,0,0,0,0,0.0129,0.0117,0.0081,0.0098,0.0094,0.0029,0.0085,0.0092,0.009,0.0094,0.0152,0.0166,0.0216,0.0252,0.0263,0.0222,0.0296,0.03,0.0296,0.0292,0.0184,0.0171,0.0159,0,0,0,0,0,0.0132,0.012,0.0078,0.007,0.0045,0.0027,0.0028,0.0055,0.0088,0.006,0.0121,0.0164,0.0232,0.0254,0.0267,0.0227,0.0303,0.0297,0.0292,0.019,0.0173,0.016,0,0,0,0,0,0,0.0194,0.0123,0.0079,0.0053,0.001,0.0035,0.0038,0.0041,0.0063,0.0076,0.0153,0.0169,0.0161,0.0214,0.0237,0.0212,0.0266,0.0264,0.0184,0.0169,0.0157,0.0196,0.0299,0,0,0,0,0,0.0169,0.0112,0.006,0.0036,0.0011,0.0007,0.0006,-0.0001,0.0028,0.0038,0.0104,0.0149,0.0147,0.0178,0.0191,0.0205,0.0216,0.0179,0.0167,0.0156,0.0193,0.0132,0.0118,0.0273,0.0273,0.0273,0,0,0.0192,0.0146,0.0117,0.0039,0.0021,-0.0014,0.0009,-0.0013,-0.0059,0.0051,0.0062,0.0101,0.0133,0.0127,0.013,0.0176,0.011,0.015,0.0141,0.0185,0.0125,0.011,0.0097,0.027,0.027,0.0271,0,0,0.0181,0.0152,0.0062,0.0025,-0.0044,-0.0026,-0.0044,-0.0048,-0.0083,-0.0067,-0.0039,0.0007,0.0058,0.0067,0.0075,0.001,0.0023,-0.0018,-0.0017,-0.008,-0.0093,-0.0104,-0.0141,-0.0154,0.0002,0.0001,0.0001,0,0.0172,0.0085,0.0047,-0.0038,-0.003,-0.0035,-0.0083,-0.0134,-0.012,-0.0137,-0.0072,0.0006,0.0038,0.0005,-0.0016,-0.0014,-0.005,0.0035,-0.0096,-0.0106,-0.0116,-0.0151,-0.0164,-0.0005,-0.0004,-0.0003,-0.0003,0,0.0103,0.0017,-0.0004,-0.0117,-0.0112,-0.014,-0.0193,-0.0233,-0.0196,-0.0191,-0.02,-0.0124,-0.0049,-0.0077,-0.0049,-0.0123,-0.0132,-0.0131,-0.0057,-0.0138,-0.0171,-0.0182,-0.0013,-0.0011,-0.0009,-0.0008,0,0,0.01,-0.0054,-0.0057,-0.0132,-0.0149,-0.0152,-0.0233,-0.029,-0.0324,-0.0286,-0.0269,-0.0257,-0.0161,-0.0146,-0.0129,-0.0159,-0.0262,-0.0166,-0.0167,-0.0198,-0.0411,-0.0155,-0.0142,-0.0316,-0.0318,-0.032,-0.0419,0,0.003,-0.013,-0.0139,-0.0207,-0.0281,-0.0274,-0.0318,-0.0362,-0.0349,-0.0334,-0.031,-0.0258,-0.0225,-0.0159,-0.0198,-0.0238,-0.0294,-0.0234,-0.0327,-0.0327,-0.0087,-0.0146,0.003,-0.002,-0.043,-0.0431,-0.0433,0,-0.0037,-0.0137,-0.0244,-0.0312,-0.0326,-0.0315,-0.0314,-0.0367,-0.0398,-0.0393,-0.0326,-0.0271,-0.0265,-0.0221,-0.0315,-0.0292,-0.0354,-0.0388,-0.0394,-0.0103,-0.0089,0.0002,-0.0025,-0.0127,-0.045,-0.0448,-0.0447,0,-0.0022,-0.0177,-0.0245,-0.0266,-0.0347,-0.0363,-0.0333,-0.0354,-0.0377,-0.0385,-0.0333,-0.0328,-0.0247,-0.0353,-0.0357,-0.0372,-0.0462,-0.0494,-0.0337,-0.0322,-0.0148,-0.0109,-0.0259,-0.0602,-0.0601,-0.0601,-0.0601,0,-0.0061,-0.0128,-0.0254,-0.0297,-0.0308,-0.034,-0.0313,-0.0345,-0.0323,-0.0259,-0.0312,-0.0212,-0.028,-0.0301,-0.0386,-0.0342,-0.049,-0.0316,-0.0319,-0.0181,-0.0146,-0.0199,-0.0338,-0.0605,-0.0604,-0.0603,-0.0603,0,-0.0037,-0.0149,-0.0261,-0.0347,-0.0323,-0.0316,-0.0234,-0.0248,-0.0261,-0.0172,-0.0151,-0.0126,-0.0098,-0.0199,-0.0296,-0.0295,-0.0344,-0.0328,-0.0121,-0.009,0.0067,-0.0084,-0.0184,-0.0168,-0.0144,-0.0138,-0.0133,0,-0.0049,-0.0122,-0.022,-0.025,-0.0271,-0.0245,-0.0211,-0.0188,-0.0158,-0.0064,-0.0002,0.006,0.0182,0.0133,0.0135,0.0045,-0.015,0.0135,0.0188,0.0137,-0.0043,-0.0158,-0.0149,0.0314,0.0322,0.0329,0.0334,0,-0.0045,-0.0089,-0.0129,-0.0185,-0.0178,-0.0172,-0.0099,-0.0057,0.0002,0.0073,0.025,0.0369,0.048,0.0615,0.0549,0.0493,0.0155,0.0286,0.0126,0.0259,0.0218,0.0216,0.0306,0.0395,0.0389,0.0384,0.0381,0.0378,0.0014,0.0031,-0.0028,-0.0028,-0.0059,-0.0061,-0.0028,0.0041,0.0168,0.0319,0.0463,0.0652,0.0898,0.0944,0.0825,0.0797,0.0636,0.0764,0.0561,0.0434,0.0541,0.0836,0.1014,0.1011,0.1009,0.1008,0.1006,0,0.0114,0.0166,0.0141,0.0119,0.009,0.0023,0.0083,0.012,0.0298,0.0474,0.0666,0.1,0.1182,0.1195,0.1263,0.1079,0.091,0.0904,0.0677,0.0658,0.0838,0.0961,0.1268,0.1268,0.1268,0.1268,0.1268,0.1268,0.0169,0.0218,0.0267,0.0303,0.0251,0.0218,0.0223,0.0313,0.044,0.0717,0.0925,0.1064,0.1252,0.1291,0.1143,0.1026,0.0692,0.0685,0.0481,0.0493,0.046,0.0429,0.0514,0.0722,0.0721,0.0445,0.0442,0.0439]},{"header":{"parameterUnit":"m.s-1","parameterCategory":2,"la1":30.2991,"la2":30.254,"lo1":-89.0895,"lo2":-89.0444,"dy":0.0017,"dx":0.0017,"nx":28,"ny":28,"refTime":"2023-08-08T03:00:00:Z","depth":"0","parameterNumber":3,"parameterNumberName":"V-component_of_CURRENTS"},"data":[0,0,0,0,0,0,0,0,0,0,0,0,0,0,0,0,0,0,0,0,0,0,0,0,0,0,0,0,0,0,0,0,0,0,0,0,0,0,0,0,0,0,0,0,0,0,0,0,0,0,0,0,0,0,0,0,0,0,0.084,0.084,0,0.0884,0.0885,0.0886,0.092,0.092,0.0919,0.0919,0.1041,0.1045,0.1049,0,0,0,0,0,0,0,0,0,0,0,0,0,0.0925,0.0923,0.084,0.084,0.084,0.0884,0.0885,0.0887,0.0921,0.092,0.0919,0.0919,0.104,0.1045,0.1049,0,0,0,0,0,0,0,0,0,0,0,0,0,0.0928,0.0922,0.084,0.0856,0.0857,0.0884,0.0885,0.0887,0.0921,0.092,0.0919,0.0919,0.1039,0.1044,0.105,0.1098,0,0,0.1066,0.1069,0,0,0,0,0,0,0,0,0.0928,0.0926,0.0854,0.0855,0.0856,0.0888,0.0959,0.0958,0.0921,0.0906,0.0919,0.0918,0.0992,0.1002,0.1023,0.1103,0.1109,0.1067,0.107,0.1073,0.1074,0,0,0,0,0,0,0,0.0927,0.0925,0.0866,0.0853,0.0855,0.0907,0.0907,0.096,0.0961,0.0907,0.0907,0.0899,0.0995,0.1017,0.1026,0.111,0.1067,0.1072,0.1075,0.1077,0.1211,0.1211,0,0,0,0,0,0,0.0897,0.0924,0.0865,0.0867,0.0881,0.0905,0.0905,0.0886,0.0958,0.0965,0.0899,0.09,0.1008,0.1019,0.103,0.1006,0.1073,0.1078,0.1081,0.121,0.1211,0.1211,0,0,0,0,0,0,0.0899,0.0891,0.0863,0.0891,0.0889,0.0902,0.0882,0.0887,0.0885,0.095,0.096,0.0888,0.1008,0.1023,0.1036,0.1014,0.108,0.1085,0.121,0.121,0.1211,0.1012,0,0,0,0,0,0,0.0901,0.0892,0.0849,0.0888,0.0886,0.0834,0.0882,0.0888,0.0878,0.0879,0.0945,0.0957,0.1009,0.1027,0.1042,0.1023,0.109,0.121,0.121,0.1211,0.1018,0.1005,0.0994,0,0,0,0,0,0.0904,0.0855,0.0847,0.0839,0.0833,0.083,0.0834,0.085,0.0877,0.0853,0.0899,0.0953,0.1042,0.103,0.1048,0.103,0.121,0.121,0.1211,0.1023,0.1008,0.0994,0,0,0,0,0,0,0.09,0.0854,0.0847,0.0792,0.0786,0.0832,0.0807,0.0834,0.0856,0.0863,0.0937,0.0951,0.0962,0.1032,0.1018,0.1078,0.1144,0.1148,0.0996,0.0982,0.097,0.0948,0.1094,0,0,0,0,0,0.0868,0.0799,0.0796,0.0752,0.0739,0.0773,0.077,0.0788,0.0818,0.0827,0.088,0.0946,0.0986,0.1005,0.1061,0.1081,0.111,0.1094,0.1081,0.107,0.1069,0.1065,0.105,0.1212,0.1212,0.1212,0,0,0.086,0.0821,0.0786,0.0741,0.0744,0.0737,0.077,0.0758,0.0737,0.084,0.0835,0.0901,0.0983,0.0997,0.1012,0.1044,0.1037,0.1071,0.106,0.1065,0.1063,0.1047,0.1032,0.1213,0.1213,0.1213,0,0,0.0803,0.0768,0.0686,0.0675,0.0646,0.0688,0.0674,0.0706,0.0683,0.0692,0.076,0.0803,0.0878,0.0922,0.0955,0.0921,0.0971,0.0953,0.0868,0.0862,0.0847,0.0834,0.0818,0.0805,0.0947,0.0947,0.0947,0,0.0769,0.0689,0.0671,0.0613,0.0604,0.0662,0.0627,0.0622,0.0656,0.0631,0.0664,0.0793,0.0843,0.0871,0.0843,0.089,0.0887,0.0898,0.0838,0.0827,0.0817,0.0804,0.0793,0.0937,0.0938,0.0939,0.094,0,0.0683,0.0608,0.0572,0.0517,0.0522,0.0495,0.0506,0.0496,0.0518,0.0532,0.0543,0.0633,0.0718,0.0735,0.0763,0.0741,0.0758,0.081,0.0853,0.0787,0.078,0.0771,0.0924,0.0927,0.093,0.0932,0,0,0.0661,0.0509,0.0526,0.0457,0.0461,0.0473,0.0426,0.0398,0.0371,0.0417,0.0403,0.046,0.0538,0.0585,0.0659,0.0643,0.0543,0.0671,0.0675,0.0616,0.0499,0.0588,0.0589,0.0559,0.0558,0.0556,0.0507,0,0.059,0.0435,0.0428,0.0371,0.0287,0.0331,0.0313,0.0312,0.0293,0.03,0.0367,0.0426,0.0469,0.0537,0.0509,0.0563,0.0517,0.0551,0.0609,0.0611,0.0665,0.0582,0.0627,0.0594,0.0499,0.0498,0.0497,0,0.0559,0.0426,0.0294,0.0225,0.0217,0.0248,0.0242,0.0227,0.0222,0.0182,0.0231,0.033,0.0371,0.0427,0.0429,0.044,0.0433,0.0456,0.0456,0.061,0.0686,0.0658,0.0584,0.0683,0.0485,0.0486,0.0487,0,0.0546,0.0404,0.028,0.0249,0.017,0.0164,0.0218,0.0208,0.0168,0.0161,0.0162,0.0226,0.0318,0.0311,0.0379,0.0385,0.0368,0.0404,0.0473,0.0479,0.0572,0.0591,0.0576,0.0359,0.0359,0.0359,0.0359,0,0.0489,0.041,0.0264,0.0186,0.0142,0.0156,0.0151,0.0133,0.0141,0.012,0.0157,0.0202,0.0284,0.0328,0.0335,0.0386,0.0338,0.0438,0.0468,0.0507,0.0519,0.0661,0.0679,0.0357,0.0358,0.0358,0.0358,0,0.0491,0.0368,0.0204,0.0093,0.0097,0.01,0.0154,0.0138,0.0119,0.0097,0.0128,0.0183,0.0224,0.028,0.0309,0.0371,0.0457,0.0418,0.046,0.0497,0.0689,0.0694,0.069,0.0772,0.0485,0.0487,0.0489,0,0.0423,0.0322,0.0171,0.0116,0.007,0.0081,0.0104,0.0118,0.0083,0.0102,0.0102,0.0184,0.0234,0.0319,0.0396,0.0424,0.0479,0.0544,0.0584,0.0689,0.0716,0.0704,0.0772,0.0604,0.0606,0.0608,0.061,0,0.0308,0.0286,0.0162,0.0061,0.0043,0.0033,0.0065,0.0038,0.0055,0.0055,0.0114,0.0206,0.028,0.0401,0.0468,0.0523,0.0638,0.059,0.0679,0.0787,0.0789,0.0889,0.0639,0.0627,0.0625,0.0624,0.0623,0.0622,0.0231,0.0195,0.0095,0.0013,-0.0004,0.0015,0.0027,0.0057,0.0086,0.0127,0.0182,0.0313,0.0441,0.056,0.062,0.081,0.0729,0.0896,0.0881,0.0849,0.097,0.0766,0.0821,0.082,0.0819,0.0819,0.0819,0,0.0192,0.0182,0.0083,-0.0006,-0.0018,0.0,0.0013,0.0051,0.0122,0.0202,0.0305,0.0534,0.0672,0.0784,0.0974,0.1097,0.1123,0.1161,0.1139,0.1189,0.0992,0.1049,0.1183,0.1183,0.1183,0.1183,0.1183,0.1182,0.0167,0.0114,0.0086,0.001,-0.0032,0.0003,0.0013,0.0113,0.0199,0.0428,0.06,0.0747,0.0991,0.108,0.1301,0.1348,0.1436,0.1375,0.1436,0.1295,0.1269,0.1244,0.1304,0.1489,0.149,0.1663,0.1664,0.1665]}],[{"header":{"parameterUnit":"m.s-1","parameterCategory":2,"la1":30.2991,"la2":30.254,"lo1":-89.0895,"lo2":-89.0444,"dy":0.0017,"dx":0.0017,"nx":28,"ny":28,"refTime":"2023-08-08T03:00:00:Z","depth":"2","parameterNumber":2,"parameterNumberName":"U-component_of_CURRENTS"},"data":[0,0,0,0,0,0,0,0,0,0,0,0,0,0,0,0,0,0,0,0,0,0,0,0,0,0,0,0,0,0,0,0,0,0,0,0,0,0,0,0,0,0,0,0,0,0,0,0,0,0,0,0,0,0,0,0,0,0,-0.1773,-0.1775,0,-0.2269,-0.2278,-0.2286,-0.2162,-0.2149,-0.2137,-0.2125,-0.2011,-0.2019,-0.2028,0,0,0,0,0,0,0,0,0,0,0,0,0,-0.1794,-0.1791,-0.1772,-0.1776,-0.1779,-0.2268,-0.2278,-0.2288,-0.2164,-0.2149,-0.2133,-0.2119,-0.2008,-0.2018,-0.2029,0,0,0,0,0,0,0,0,0,0,0,0,0,-0.2016,-0.1789,-0.1772,-0.1752,-0.1753,-0.2266,-0.2278,-0.2291,-0.2168,-0.2148,-0.2129,-0.2112,-0.2004,-0.2017,-0.203,-0.2494,0,0,-0.2071,-0.2076,0,0,0,0,0,0,0,0,-0.2002,-0.2019,-0.1752,-0.1754,-0.1755,-0.2105,-0.2243,-0.2317,-0.2172,-0.2045,-0.2124,-0.2102,-0.1979,-0.1993,-0.2184,-0.2488,-0.2484,-0.2072,-0.208,-0.2086,-0.2089,0,0,0,0,0,0,0,-0.1986,-0.2003,-0.2002,-0.1756,-0.1758,-0.2085,-0.209,-0.2267,-0.2127,-0.2055,-0.2038,-0.2048,-0.1977,-0.2173,-0.2178,-0.2482,-0.2072,-0.2083,-0.2091,-0.2097,-0.2592,-0.2597,0,0,0,0,0,0,-0.1823,-0.1983,-0.1986,-0.2014,-0.1798,-0.2093,-0.2101,-0.2039,-0.2138,-0.213,-0.2064,-0.204,-0.216,-0.2163,-0.2172,-0.2224,-0.2086,-0.2098,-0.2106,-0.2587,-0.2593,-0.2599,0,0,0,0,0,0,-0.1821,-0.1817,-0.1965,-0.199,-0.2025,-0.2101,-0.2043,-0.2058,-0.2079,-0.2145,-0.2127,-0.2037,-0.2145,-0.2153,-0.2209,-0.2232,-0.2104,-0.2116,-0.2581,-0.2589,-0.2596,-0.2645,0,0,0,0,0,0,-0.1819,-0.1812,-0.1766,-0.1974,-0.2015,-0.2179,-0.2058,-0.2081,-0.2108,-0.2078,-0.2124,-0.2104,-0.2131,-0.219,-0.2222,-0.2248,-0.2126,-0.2574,-0.2584,-0.2594,-0.2637,-0.2653,-0.2668,0,0,0,0,0,-0.1818,-0.1887,-0.176,-0.1762,-0.1927,-0.218,-0.2241,-0.226,-0.2121,-0.2198,-0.218,-0.2093,-0.2269,-0.2209,-0.2244,-0.2274,-0.2569,-0.2582,-0.2593,-0.263,-0.265,-0.2667,0,0,0,0,0,0,-0.1884,-0.1883,-0.1748,-0.1794,-0.1889,-0.2141,-0.2224,-0.2228,-0.2322,-0.2188,-0.2219,-0.2213,-0.226,-0.2306,-0.2235,-0.2449,-0.239,-0.2409,-0.2405,-0.2425,-0.244,-0.2364,-0.2137,0,0,0,0,0,-0.1859,-0.1828,-0.1914,-0.19,-0.1942,-0.2051,-0.2152,-0.2133,-0.2227,-0.2244,-0.2313,-0.2338,-0.2412,-0.2415,-0.2522,-0.2696,-0.2589,-0.2724,-0.274,-0.2752,-0.272,-0.2596,-0.2593,-0.2638,-0.2638,-0.2637,0,0,-0.1831,-0.1843,-0.1797,-0.1903,-0.196,-0.2101,-0.2068,-0.2149,-0.225,-0.2223,-0.2382,-0.2407,-0.247,-0.2618,-0.2642,-0.2607,-0.2694,-0.2767,-0.2776,-0.2736,-0.2607,-0.2601,-0.2595,-0.2646,-0.2644,-0.2643,0,0,-0.1879,-0.1789,-0.1814,-0.1927,-0.1979,-0.2079,-0.205,-0.225,-0.2298,-0.2489,-0.2437,-0.2447,-0.2691,-0.2711,-0.2746,-0.2931,-0.278,-0.2966,-0.2984,-0.2866,-0.2857,-0.2848,-0.2711,-0.2689,-0.297,-0.297,-0.297,0,-0.1828,-0.1887,-0.1884,-0.2009,-0.2132,-0.2028,-0.2191,-0.2287,-0.248,-0.2523,-0.2478,-0.2691,-0.2731,-0.2806,-0.2873,-0.295,-0.285,-0.2893,-0.2871,-0.2861,-0.285,-0.2711,-0.2685,-0.2974,-0.2973,-0.2973,-0.2973,0,-0.2026,-0.2006,-0.2061,-0.2111,-0.2273,-0.2379,-0.2481,-0.253,-0.2535,-0.2619,-0.2698,-0.2796,-0.2862,-0.2918,-0.2971,-0.2955,-0.2896,-0.2891,-0.2788,-0.2845,-0.27,-0.2672,-0.2979,-0.2978,-0.2977,-0.2976,0,0,-0.2064,-0.2158,-0.2174,-0.2149,-0.2356,-0.2454,-0.2592,-0.2731,-0.2657,-0.2807,-0.2848,-0.3009,-0.2923,-0.2961,-0.2984,-0.2925,-0.2805,-0.2893,-0.2885,-0.2692,-0.2505,-0.2392,-0.235,-0.2773,-0.2769,-0.2766,-0.2429,0,-0.2191,-0.2345,-0.2507,-0.2598,-0.2644,-0.2712,-0.2857,-0.29,-0.2918,-0.2912,-0.2889,-0.2922,-0.2976,-0.2948,-0.2903,-0.2843,-0.2736,-0.2894,-0.2534,-0.2523,-0.236,-0.2316,-0.2319,-0.2012,-0.2401,-0.2397,-0.2393,0,-0.2412,-0.2446,-0.2602,-0.2662,-0.2722,-0.2797,-0.2864,-0.3014,-0.2948,-0.295,-0.2891,-0.2854,-0.2824,-0.2827,-0.2654,-0.2746,-0.2621,-0.2548,-0.2532,-0.2376,-0.2357,-0.2026,-0.1946,-0.2346,-0.2349,-0.2353,-0.2356,0,-0.235,-0.2541,-0.2615,-0.2679,-0.2762,-0.2818,-0.2914,-0.2941,-0.3013,-0.2904,-0.2821,-0.2763,-0.269,-0.2561,-0.2446,-0.253,-0.2176,-0.2261,-0.2013,-0.2003,-0.1906,-0.1894,-0.2043,-0.2044,-0.2045,-0.2046,-0.2047,0,-0.2411,-0.2434,-0.2501,-0.2463,-0.2586,-0.2713,-0.2778,-0.2818,-0.2806,-0.2778,-0.2777,-0.2661,-0.2614,-0.2437,-0.2345,-0.2061,-0.2065,-0.1961,-0.1891,-0.1932,-0.1927,-0.2156,-0.2173,-0.2033,-0.2036,-0.2038,-0.204,0,-0.22,-0.2282,-0.2326,-0.2412,-0.2486,-0.2548,-0.2767,-0.2712,-0.2718,-0.2659,-0.2628,-0.2544,-0.2327,-0.2207,-0.1967,-0.1892,-0.1664,-0.1539,-0.1582,-0.1525,-0.1601,-0.1627,-0.1259,-0.1252,-0.1246,-0.1241,-0.1237,0,-0.2076,-0.2059,-0.2237,-0.228,-0.2294,-0.2422,-0.2488,-0.2656,-0.2617,-0.2558,-0.2465,-0.2276,-0.2113,-0.1719,-0.1561,-0.1292,-0.1372,-0.1102,-0.1287,-0.1542,-0.1512,-0.1548,-0.1581,-0.1182,-0.1178,-0.1174,-0.1171,0,-0.1866,-0.1946,-0.1949,-0.2013,-0.2102,-0.2276,-0.2349,-0.2366,-0.2473,-0.2392,-0.2218,-0.2098,-0.1769,-0.154,-0.121,-0.1054,-0.1179,-0.1019,-0.1193,-0.1401,-0.1447,-0.1426,-0.1465,-0.1139,-0.1143,-0.1145,-0.1147,-0.1148,-0.1735,-0.175,-0.1744,-0.1834,-0.1917,-0.2001,-0.2104,-0.2113,-0.2151,-0.203,-0.1986,-0.1706,-0.16,-0.1091,-0.0908,-0.0747,-0.0877,-0.0859,-0.088,-0.0901,-0.0973,-0.1008,-0.0629,-0.0629,-0.0629,-0.0629,-0.063,0,-0.1642,-0.1611,-0.1579,-0.1682,-0.1676,-0.1761,-0.1899,-0.1946,-0.1934,-0.1776,-0.1634,-0.1221,-0.1053,-0.0868,-0.0665,-0.0593,-0.0646,-0.0487,-0.0672,-0.0705,-0.0734,-0.0806,-0.0412,-0.041,-0.0408,-0.0406,0,0,-0.1579,-0.1561,-0.1546,-0.1472,-0.1427,-0.1446,-0.1525,-0.1604,-0.1546,-0.1305,-0.1066,-0.1003,-0.0905,-0.0661,-0.0632,-0.0536,-0.0587,-0.0438,-0.0639,-0.09,-0.0927,-0.099,-0.1141,0,0,0,0,0]},{"header":{"parameterUnit":"m.s-1","parameterCategory":2,"la1":30.2991,"la2":30.254,"lo1":-89.0895,"lo2":-89.0444,"dy":0.0017,"dx":0.0017,"nx":28,"ny":28,"refTime":"2023-08-08T03:00:00:Z","depth":"2","parameterNumber":3,"parameterNumberName":"V-component_of_CURRENTS"},"data":[0,0,0,0,0,0,0,0,0,0,0,0,0,0,0,0,0,0,0,0,0,0,0,0,0,0,0,0,0,0,0,0,0,0,0,0,0,0,0,0,0,0,0,0,0,0,0,0,0,0,0,0,0,0,0,0,0,0,-0.0251,-0.025,0,-0.0313,-0.0316,-0.0318,-0.0374,-0.0373,-0.0372,-0.0371,-0.0281,-0.028,-0.0278,0,0,0,0,0,0,0,0,0,0,0,0,0,-0.0567,-0.056,-0.0252,-0.025,-0.0249,-0.0313,-0.0316,-0.0319,-0.0375,-0.0373,-0.0371,-0.037,-0.0281,-0.028,-0.0278,0,0,0,0,0,0,0,0,0,0,0,0,0,-0.0529,-0.0558,-0.0252,-0.0269,-0.0269,-0.0312,-0.0316,-0.032,-0.0375,-0.0373,-0.0371,-0.0369,-0.0282,-0.028,-0.0278,-0.0306,0,0,-0.0273,-0.0272,0,0,0,0,0,0,0,0,-0.0531,-0.052,-0.0268,-0.0267,-0.0268,-0.0315,-0.0393,-0.03,-0.0375,-0.0358,-0.0371,-0.0368,-0.0265,-0.0265,-0.0314,-0.0302,-0.0298,-0.0273,-0.0271,-0.0271,-0.027,0,0,0,0,0,0,0,-0.0533,-0.052,-0.0298,-0.0266,-0.0266,-0.0404,-0.0395,-0.038,-0.0336,-0.0359,-0.0358,-0.0331,-0.0267,-0.0316,-0.0311,-0.0297,-0.0273,-0.0271,-0.027,-0.0269,-0.0043,-0.0039,0,0,0,0,0,0,-0.0462,-0.0519,-0.0296,-0.0298,-0.0373,-0.0396,-0.0388,-0.032,-0.0339,-0.0335,-0.0333,-0.0333,-0.032,-0.0313,-0.0308,-0.0197,-0.0271,-0.0269,-0.0268,-0.0048,-0.0042,-0.0037,0,0,0,0,0,0,-0.0468,-0.044,-0.0293,-0.0397,-0.0384,-0.0388,-0.0314,-0.0321,-0.0335,-0.0317,-0.0314,-0.0331,-0.0318,-0.031,-0.0245,-0.0198,-0.0268,-0.0267,-0.0054,-0.0046,-0.004,-0.0065,0,0,0,0,0,0,-0.0476,-0.0441,-0.0386,-0.0389,-0.0375,-0.0301,-0.0314,-0.0323,-0.0312,-0.0314,-0.0314,-0.0307,-0.0316,-0.0248,-0.0244,-0.0197,-0.0265,-0.006,-0.0051,-0.0042,-0.0071,-0.006,-0.005,0,0,0,0,0,-0.0487,-0.0442,-0.0382,-0.0355,-0.029,-0.0299,-0.0309,-0.0324,-0.0313,-0.033,-0.0297,-0.0305,-0.0183,-0.0245,-0.024,-0.0192,-0.0065,-0.0053,-0.0043,-0.0075,-0.0062,-0.0051,0,0,0,0,0,0,-0.0542,-0.044,-0.0377,-0.0292,-0.0269,-0.03,-0.0313,-0.0305,-0.0307,-0.0291,-0.0281,-0.0272,-0.019,-0.0166,-0.0233,-0.0081,-0.0109,-0.0097,-0.0135,-0.0122,-0.0112,-0.0125,-0.0264,0,0,0,0,0,-0.0514,-0.0438,-0.038,-0.0295,-0.0293,-0.029,-0.0294,-0.0291,-0.028,-0.0283,-0.0276,-0.022,-0.015,-0.0117,-0.0077,-0.0021,-0.0011,0.0038,0.0048,0.0055,0.006,0.0132,0.0146,-0.0,-0.0001,-0.0001,0,0,-0.0496,-0.0428,-0.0378,-0.03,-0.0295,-0.03,-0.0296,-0.0289,-0.0259,-0.0264,-0.0242,-0.0201,-0.0122,-0.0057,-0.0013,-0.003,0.0101,0.007,0.0074,0.0075,0.0144,0.0157,0.0169,0.0007,0.0006,0.0005,0,0,-0.0473,-0.0376,-0.0337,-0.0323,-0.0279,-0.0292,-0.0272,-0.0284,-0.0259,-0.0219,-0.0182,-0.0097,-0.005,0.0025,0.0077,0.0186,0.0149,0.0208,0.0235,0.0304,0.0314,0.0324,0.0313,0.0322,0.0214,0.0214,0.0214,0,-0.046,-0.0388,-0.0335,-0.0319,-0.0311,-0.0278,-0.0283,-0.0253,-0.0231,-0.0186,-0.0193,-0.0057,0.0005,0.0139,0.0177,0.0205,0.0192,0.0158,0.0308,0.0318,0.0327,0.0315,0.0325,0.0214,0.0214,0.0214,0.0214,0,-0.0456,-0.0384,-0.0378,-0.0324,-0.0314,-0.0319,-0.0259,-0.0233,-0.0197,-0.0157,-0.0034,0.0036,0.0112,0.0176,0.02,0.0325,0.0273,0.0296,0.0246,0.0338,0.0322,0.0332,0.0214,0.0214,0.0214,0.0214,0,0,-0.0501,-0.0393,-0.0401,-0.037,-0.0329,-0.0338,-0.0254,-0.0197,-0.0147,-0.0071,-0.0001,0.0159,0.0174,0.0241,0.0295,0.0378,0.0434,0.035,0.0353,0.0285,0.0503,0.0548,0.0562,0.0447,0.045,0.0452,0.0445,0,-0.0534,-0.0507,-0.0448,-0.0434,-0.0431,-0.036,-0.0304,-0.0215,-0.0143,-0.0072,0.0095,0.0155,0.0213,0.0219,0.0328,0.0413,0.0466,0.0429,0.0473,0.0474,0.0459,0.058,0.0496,0.0491,0.0454,0.0456,0.0457,0,-0.06,-0.0568,-0.0547,-0.0476,-0.0477,-0.0472,-0.0409,-0.0346,-0.0178,-0.0117,0.0006,0.0092,0.025,0.0263,0.0451,0.0402,0.0445,0.0511,0.0512,0.0574,0.0542,0.0412,0.0511,0.0474,0.0473,0.0471,0.047,0,-0.0701,-0.0661,-0.0644,-0.0625,-0.0534,-0.0517,-0.0511,-0.0376,-0.0318,-0.0179,-0.0149,0.0055,0.0135,0.0256,0.0408,0.0401,0.0585,0.0595,0.0672,0.0671,0.0628,0.0621,0.0707,0.0707,0.0707,0.0707,0.0707,0,-0.0762,-0.0768,-0.0706,-0.068,-0.0718,-0.0631,-0.0622,-0.0564,-0.0455,-0.0362,-0.0223,-0.0094,0.0135,0.0285,0.0388,0.0571,0.0564,0.0699,0.0705,0.0618,0.0611,0.063,0.0621,0.0706,0.0706,0.0707,0.0707,0,-0.083,-0.0774,-0.0779,-0.0731,-0.073,-0.0781,-0.0752,-0.0709,-0.0641,-0.0522,-0.0496,-0.0211,0.0008,0.0187,0.0424,0.055,0.0699,0.074,0.0591,0.0586,0.0724,0.0715,0.0841,0.0843,0.0845,0.0847,0.0848,0,-0.0848,-0.085,-0.0836,-0.0854,-0.084,-0.0882,-0.0854,-0.0811,-0.0731,-0.0544,-0.0451,-0.024,0.0011,0.0334,0.0593,0.076,0.0723,0.0737,0.0777,0.0761,0.0753,0.0741,0.073,0.0666,0.0666,0.0666,0.0666,0,-0.0928,-0.0928,-0.0898,-0.0927,-0.0948,-0.0952,-0.0919,-0.0887,-0.0748,-0.0628,-0.0355,-0.0174,0.0182,0.0482,0.0675,0.0749,0.0718,0.0745,0.0783,0.0675,0.0606,0.0595,0.0588,0.0664,0.0664,0.0664,0.0665,0.0665,-0.0992,-0.1048,-0.1001,-0.1048,-0.1021,-0.0977,-0.0983,-0.0839,-0.071,-0.05,-0.0317,-0.0052,0.0164,0.0539,0.0671,0.0796,0.085,0.0792,0.0788,0.0785,0.0797,0.074,0.0818,0.0819,0.082,0.082,0.0821,0,-0.1118,-0.1132,-0.1134,-0.1152,-0.1107,-0.1068,-0.0953,-0.0867,-0.0651,-0.0448,-0.0248,-0.0054,0.0218,0.0418,0.0708,0.0856,0.0794,0.0749,0.0647,0.0649,0.065,0.0651,0.0635,0.0635,0.0635,0.0635,0,0,-0.1154,-0.1242,-0.1245,-0.1238,-0.1179,-0.1133,-0.1055,-0.0818,-0.0629,-0.0373,-0.0201,-0.0096,0.0243,0.0331,0.0465,0.0607,0.0563,0.0551,0.0683,0.0543,0.0543,0.0656,0.0659,0,0,0,0,0]}],[{"header":{"parameterUnit":"m.s-1","parameterCategory":2,"la1":30.2991,"la2":30.254,"lo1":-89.0895,"lo2":-89.0444,"dy":0.0017,"dx":0.0017,"nx":28,"ny":28,"refTime":"2023-08-08T03:00:00:Z","depth":"4","parameterNumber":2,"parameterNumberName":"U-component_of_CURRENTS"},"data":[0,0,0,0,0,0,0,0,0,0,0,0,0,0,0,0,0,0,0,0,0,0,0,0,0,0,0,0,0,0,0,0,0,0,0,0,0,0,0,0,0,0,0,0,0,0,0,0,0,0,0,0,0,0,0,0,0,0,-0.1029,-0.1029,0,-0.1107,-0.1109,-0.111,-0.1187,-0.1187,-0.1188,-0.1188,-0.1189,-0.1189,-0.1189,0,0,0,0,0,0,0,0,0,0,0,0,0,-0.0966,-0.0968,-0.1029,-0.1029,-0.103,-0.1107,-0.1109,-0.1111,-0.1187,-0.1187,-0.1188,-0.1188,-0.1189,-0.1189,-0.1189,0,0,0,0,0,0,0,0,0,0,0,0,0,-0.102,-0.0968,-0.1029,-0.1072,-0.1077,-0.1107,-0.1109,-0.1111,-0.1187,-0.1187,-0.1188,-0.1188,-0.119,-0.1189,-0.1189,-0.1173,0,0,-0.1187,-0.1187,0,0,0,0,0,0,0,0,-0.1017,-0.1023,-0.1065,-0.1069,-0.1074,-0.1132,-0.1087,-0.1126,-0.1186,-0.1151,-0.1188,-0.1189,-0.1158,-0.1161,-0.1184,-0.1173,-0.1173,-0.1187,-0.1187,-0.1186,-0.1186,0,0,0,0,0,0,0,-0.1013,-0.102,-0.1066,-0.1066,-0.1071,-0.1095,-0.1104,-0.1096,-0.1154,-0.1155,-0.1159,-0.1157,-0.1161,-0.1185,-0.1184,-0.1173,-0.1187,-0.1186,-0.1186,-0.1186,-0.1324,-0.1327,0,0,0,0,0,0,-0.0989,-0.1016,-0.1064,-0.1068,-0.1039,-0.1095,-0.1105,-0.1118,-0.1156,-0.1161,-0.1157,-0.116,-0.1185,-0.1185,-0.1184,-0.1228,-0.1186,-0.1186,-0.1185,-0.132,-0.1324,-0.1329,0,0,0,0,0,0,-0.0988,-0.0993,-0.106,-0.1038,-0.1048,-0.1095,-0.1109,-0.1119,-0.116,-0.1157,-0.1162,-0.1187,-0.1186,-0.1185,-0.1214,-0.1225,-0.1186,-0.1185,-0.1315,-0.1321,-0.1327,-0.1274,0,0,0,0,0,0,-0.0986,-0.0993,-0.1005,-0.1037,-0.1048,-0.1078,-0.1108,-0.112,-0.1153,-0.116,-0.1184,-0.1185,-0.1186,-0.1215,-0.1214,-0.1224,-0.1185,-0.131,-0.1318,-0.1325,-0.1271,-0.1278,-0.1284,0,0,0,0,0,-0.0984,-0.1008,-0.1006,-0.1011,-0.106,-0.1077,-0.1086,-0.1126,-0.1154,-0.1167,-0.1208,-0.1185,-0.1264,-0.1217,-0.1214,-0.1224,-0.1306,-0.1315,-0.1324,-0.1268,-0.1276,-0.1283,0,0,0,0,0,0,-0.1003,-0.1018,-0.1016,-0.1048,-0.1053,-0.1088,-0.1117,-0.1132,-0.1178,-0.1207,-0.1204,-0.1208,-0.1246,-0.1263,-0.1211,-0.1304,-0.1293,-0.1302,-0.1252,-0.126,-0.1266,-0.1369,-0.1184,0,0,0,0,0,-0.1002,-0.1025,-0.1026,-0.1053,-0.1058,-0.1087,-0.1105,-0.1132,-0.1166,-0.119,-0.1214,-0.126,-0.1281,-0.1289,-0.1322,-0.1343,-0.1355,-0.137,-0.1376,-0.138,-0.1474,-0.1474,-0.1486,-0.1358,-0.1358,-0.1358,0,0,-0.1014,-0.103,-0.104,-0.1057,-0.1079,-0.1095,-0.1104,-0.1146,-0.1185,-0.1179,-0.1261,-0.1272,-0.1297,-0.1337,-0.1358,-0.1346,-0.1411,-0.1391,-0.1393,-0.1488,-0.1484,-0.1496,-0.1506,-0.1364,-0.1363,-0.1362,0,0,-0.1036,-0.1066,-0.1074,-0.1082,-0.1105,-0.113,-0.1138,-0.1183,-0.1231,-0.1291,-0.1303,-0.1355,-0.1384,-0.1418,-0.1429,-0.1504,-0.1444,-0.1489,-0.1585,-0.1578,-0.1587,-0.1596,-0.1546,-0.1551,-0.1487,-0.1487,-0.1487,0,-0.104,-0.1052,-0.1079,-0.1087,-0.1099,-0.1142,-0.115,-0.121,-0.1269,-0.1295,-0.1331,-0.1433,-0.1451,-0.1486,-0.1543,-0.1515,-0.148,-0.1519,-0.1578,-0.1588,-0.1598,-0.1546,-0.1551,-0.1485,-0.1486,-0.1486,-0.1486,0,-0.1057,-0.1062,-0.1079,-0.1101,-0.1127,-0.115,-0.1207,-0.127,-0.1341,-0.1374,-0.146,-0.1526,-0.1591,-0.1588,-0.16,-0.1666,-0.1601,-0.1567,-0.1533,-0.1606,-0.1547,-0.1554,-0.1483,-0.1484,-0.1484,-0.1485,0,0,-0.104,-0.1074,-0.1072,-0.1073,-0.1133,-0.1155,-0.1245,-0.1293,-0.1352,-0.1456,-0.1512,-0.1633,-0.1679,-0.1714,-0.1713,-0.1754,-0.1769,-0.1711,-0.1711,-0.1621,-0.1705,-0.155,-0.1541,-0.1695,-0.1698,-0.1701,-0.1602,0,-0.1021,-0.1027,-0.1061,-0.1082,-0.1084,-0.116,-0.1232,-0.1305,-0.1393,-0.1468,-0.1564,-0.1636,-0.1711,-0.1745,-0.1804,-0.1793,-0.1802,-0.18,-0.1695,-0.1694,-0.1511,-0.1552,-0.1711,-0.1607,-0.1609,-0.161,-0.1611,0,-0.0997,-0.1003,-0.1012,-0.1055,-0.1068,-0.1112,-0.1227,-0.1296,-0.1408,-0.1487,-0.1597,-0.1651,-0.1781,-0.1816,-0.1896,-0.187,-0.1835,-0.1821,-0.1812,-0.1725,-0.1557,-0.1552,-0.1623,-0.1622,-0.1622,-0.1621,-0.162,0,-0.0944,-0.0961,-0.0972,-0.0986,-0.106,-0.1105,-0.1164,-0.1287,-0.135,-0.1498,-0.1541,-0.169,-0.177,-0.181,-0.1842,-0.1859,-0.1852,-0.1835,-0.1651,-0.1635,-0.1819,-0.1812,-0.1874,-0.1874,-0.1874,-0.1875,-0.1875,0,-0.0893,-0.0896,-0.0953,-0.0954,-0.0992,-0.1071,-0.1131,-0.1242,-0.1356,-0.1386,-0.1547,-0.1574,-0.1783,-0.1783,-0.1807,-0.1748,-0.1812,-0.1718,-0.1627,-0.1789,-0.1781,-0.1816,-0.1811,-0.1871,-0.1872,-0.1872,-0.1873,0,-0.0837,-0.0865,-0.0873,-0.0937,-0.0963,-0.1001,-0.1084,-0.113,-0.1268,-0.1316,-0.1362,-0.1511,-0.1554,-0.1648,-0.1691,-0.1676,-0.1633,-0.1558,-0.1697,-0.1605,-0.1432,-0.1426,-0.1414,-0.1409,-0.1404,-0.14,-0.1396,0,-0.0803,-0.0805,-0.0852,-0.0846,-0.0874,-0.092,-0.095,-0.1091,-0.1126,-0.1216,-0.1211,-0.1294,-0.1369,-0.1296,-0.1428,-0.1444,-0.1429,-0.1392,-0.1526,-0.1487,-0.1399,-0.14,-0.1401,-0.1389,-0.1388,-0.1386,-0.1385,0,-0.0739,-0.0775,-0.0794,-0.0782,-0.0798,-0.0787,-0.0828,-0.0838,-0.0967,-0.1081,-0.1047,-0.1074,-0.109,-0.1188,-0.1203,-0.12,-0.1446,-0.1344,-0.1357,-0.1483,-0.1455,-0.1373,-0.1379,-0.1368,-0.1371,-0.1372,-0.1373,0,-0.0696,-0.0711,-0.0733,-0.0733,-0.0718,-0.0656,-0.0675,-0.0682,-0.0736,-0.0874,-0.0814,-0.0889,-0.1012,-0.1043,-0.1014,-0.1065,-0.1115,-0.1122,-0.1148,-0.1168,-0.1151,-0.1084,-0.0836,0,0,0,0,0,-0.0625,-0.0664,-0.0663,-0.0633,-0.06,-0.0588,-0.0606,-0.0631,-0.0727,-0.0683,-0.0771,-0.0764,-0.081,-0.0833,-0.0858,-0.0952,-0.1131,-0.0975,-0.1153,-0.1276,-0.1295,-0.1309,0,0,0,0,0,0,-0.0606,-0.0611,-0.066,-0.0556,-0.05,-0.0449,-0.0445,-0.0492,-0.0475,-0.0582,-0.0608,-0.0713,-0.0775,-0.0801,-0.084,-0.0863,-0.0958,-0.105,-0.1048,-0.1265,-0.1283,-0.1298,-0.1319,0,0,0,0,0]},{"header":{"parameterUnit":"m.s-1","parameterCategory":2,"la1":30.2991,"la2":30.254,"lo1":-89.0895,"lo2":-89.0444,"dy":0.0017,"dx":0.0017,"nx":28,"ny":28,"refTime":"2023-08-08T03:00:00:Z","depth":"4","parameterNumber":3,"parameterNumberName":"V-component_of_CURRENTS"},"data":[0,0,0,0,0,0,0,0,0,0,0,0,0,0,0,0,0,0,0,0,0,0,0,0,0,0,0,0,0,0,0,0,0,0,0,0,0,0,0,0,0,0,0,0,0,0,0,0,0,0,0,0,0,0,0,0,0,0,-0.0331,-0.033,0,-0.0346,-0.0347,-0.0347,-0.0322,-0.032,-0.0318,-0.0317,-0.0339,-0.0341,-0.0343,0,0,0,0,0,0,0,0,0,0,0,0,0,-0.0298,-0.03,-0.0331,-0.033,-0.033,-0.0346,-0.0347,-0.0348,-0.0322,-0.032,-0.0318,-0.0316,-0.0338,-0.0341,-0.0343,0,0,0,0,0,0,0,0,0,0,0,0,0,-0.032,-0.03,-0.0331,-0.0313,-0.0311,-0.0346,-0.0347,-0.0348,-0.0322,-0.032,-0.0318,-0.0315,-0.0338,-0.0341,-0.0344,-0.0411,0,0,-0.0353,-0.0355,0,0,0,0,0,0,0,0,-0.0319,-0.0323,-0.0316,-0.0314,-0.0312,-0.0322,-0.0343,-0.0367,-0.0323,-0.0326,-0.0317,-0.0314,-0.0331,-0.0334,-0.0354,-0.0412,-0.0413,-0.0353,-0.0355,-0.0357,-0.0358,0,0,0,0,0,0,0,-0.0318,-0.0322,-0.0345,-0.0316,-0.0313,-0.031,-0.0311,-0.0348,-0.0348,-0.0326,-0.0322,-0.0312,-0.033,-0.0351,-0.0354,-0.0413,-0.0353,-0.0356,-0.0358,-0.0359,-0.0533,-0.0535,0,0,0,0,0,0,-0.0302,-0.0321,-0.0344,-0.0344,-0.0301,-0.0312,-0.0314,-0.0328,-0.0348,-0.0346,-0.0314,-0.0311,-0.0347,-0.035,-0.0354,-0.0452,-0.0357,-0.036,-0.0361,-0.053,-0.0533,-0.0536,0,0,0,0,0,0,-0.0302,-0.0305,-0.0343,-0.0325,-0.0328,-0.0314,-0.0331,-0.0329,-0.0344,-0.0337,-0.0336,-0.0327,-0.0345,-0.035,-0.0398,-0.0452,-0.0361,-0.0364,-0.0527,-0.0531,-0.0535,-0.0637,0,0,0,0,0,0,-0.0301,-0.0306,-0.0316,-0.0325,-0.0328,-0.0372,-0.0332,-0.0331,-0.0337,-0.0333,-0.0349,-0.0348,-0.0343,-0.0394,-0.0401,-0.0454,-0.0366,-0.0523,-0.0529,-0.0534,-0.063,-0.0644,-0.0656,0,0,0,0,0,-0.0301,-0.0327,-0.0318,-0.032,-0.0343,-0.0372,-0.0377,-0.0362,-0.034,-0.0364,-0.0374,-0.0348,-0.0431,-0.0399,-0.0407,-0.0462,-0.0521,-0.0527,-0.0533,-0.0624,-0.0641,-0.0656,0,0,0,0,0,0,-0.0319,-0.0327,-0.0316,-0.0343,-0.0356,-0.0365,-0.0384,-0.0372,-0.0401,-0.0399,-0.0387,-0.0391,-0.0456,-0.0448,-0.0412,-0.0528,-0.0471,-0.0479,-0.0538,-0.0554,-0.0566,-0.0498,-0.0369,0,0,0,0,0,-0.0327,-0.0354,-0.0354,-0.038,-0.0388,-0.0389,-0.0398,-0.0394,-0.0411,-0.0421,-0.0435,-0.0455,-0.0494,-0.051,-0.0544,-0.0609,-0.0534,-0.0649,-0.0662,-0.0672,-0.0624,-0.0588,-0.0591,-0.0557,-0.0557,-0.0556,0,0,-0.0341,-0.0348,-0.0362,-0.0385,-0.0398,-0.0439,-0.0393,-0.0421,-0.0453,-0.0422,-0.0488,-0.0507,-0.0523,-0.0597,-0.0625,-0.0592,-0.0647,-0.068,-0.0689,-0.0633,-0.0594,-0.0596,-0.0599,-0.0561,-0.056,-0.0559,0,0,-0.0392,-0.0393,-0.0434,-0.0457,-0.0473,-0.0478,-0.0487,-0.0511,-0.0517,-0.058,-0.0571,-0.0605,-0.0675,-0.0688,-0.0703,-0.0805,-0.0722,-0.0836,-0.0841,-0.081,-0.0811,-0.081,-0.0722,-0.0713,-0.0837,-0.0837,-0.0837,0,-0.0408,-0.0456,-0.0451,-0.0502,-0.0523,-0.0501,-0.0554,-0.0572,-0.0609,-0.0615,-0.0611,-0.0689,-0.0712,-0.0765,-0.0798,-0.0832,-0.077,-0.0784,-0.0822,-0.082,-0.0818,-0.0727,-0.0715,-0.0842,-0.0842,-0.0841,-0.0841,0,-0.049,-0.0531,-0.0563,-0.0618,-0.0645,-0.0689,-0.0701,-0.0728,-0.0731,-0.0734,-0.0783,-0.0808,-0.0831,-0.0873,-0.0864,-0.0882,-0.0829,-0.0847,-0.0771,-0.0826,-0.0728,-0.0714,-0.0851,-0.0849,-0.0847,-0.0845,0,0,-0.0524,-0.0603,-0.0618,-0.0651,-0.0708,-0.0735,-0.0793,-0.082,-0.0837,-0.0864,-0.0884,-0.0943,-0.0912,-0.0922,-0.0928,-0.0894,-0.0847,-0.0854,-0.085,-0.0742,-0.072,-0.0659,-0.0637,-0.087,-0.0869,-0.0868,-0.0657,0,-0.059,-0.0682,-0.0719,-0.0813,-0.0852,-0.0867,-0.0915,-0.0934,-0.0946,-0.0965,-0.0944,-0.0987,-0.0947,-0.0972,-0.0925,-0.0873,-0.0813,-0.0897,-0.0699,-0.0691,-0.0612,-0.0621,-0.0862,-0.0646,-0.0642,-0.064,-0.0638,0,-0.0663,-0.0703,-0.0802,-0.0873,-0.0896,-0.0964,-0.1008,-0.1046,-0.1051,-0.1058,-0.1048,-0.1036,-0.0991,-0.0973,-0.0817,-0.0868,-0.0779,-0.0721,-0.0713,-0.0593,-0.0604,-0.058,-0.0611,-0.0613,-0.0615,-0.0617,-0.0619,0,-0.0656,-0.0767,-0.0836,-0.0871,-0.095,-0.1004,-0.1045,-0.1075,-0.1085,-0.1115,-0.1122,-0.1062,-0.1044,-0.0914,-0.0769,-0.0796,-0.0573,-0.0616,-0.0459,-0.0452,-0.0522,-0.0524,-0.0491,-0.0491,-0.0492,-0.0492,-0.0493,0,-0.0705,-0.0762,-0.0846,-0.0885,-0.0962,-0.1017,-0.108,-0.1122,-0.1142,-0.1135,-0.1157,-0.1124,-0.1029,-0.0899,-0.0754,-0.0524,-0.0553,-0.0415,-0.0392,-0.0573,-0.0584,-0.051,-0.0515,-0.0484,-0.0486,-0.0488,-0.0489,0,-0.0703,-0.0762,-0.0836,-0.093,-0.0967,-0.1022,-0.1102,-0.1119,-0.1163,-0.1157,-0.1169,-0.1144,-0.0973,-0.0832,-0.0629,-0.0514,-0.0321,-0.0243,-0.0386,-0.0382,-0.0215,-0.0229,-0.0034,-0.003,-0.0027,-0.0024,-0.0022,0,-0.0713,-0.0747,-0.0851,-0.0897,-0.0962,-0.1031,-0.1061,-0.1121,-0.112,-0.113,-0.1106,-0.1019,-0.0958,-0.0602,-0.0473,-0.0184,-0.017,-0.0078,-0.0182,-0.0169,-0.0167,-0.0186,-0.0204,-0.0016,-0.0016,-0.0015,-0.0014,0,-0.0708,-0.0748,-0.08,-0.0882,-0.0955,-0.0996,-0.1048,-0.1036,-0.106,-0.1104,-0.1022,-0.0914,-0.0728,-0.0534,-0.0332,-0.0131,-0.0147,-0.0043,-0.0051,-0.0147,-0.0145,-0.0151,-0.0172,-0.0002,-0.0004,-0.0005,-0.0006,0,-0.0686,-0.0723,-0.0786,-0.0863,-0.094,-0.0959,-0.0982,-0.0964,-0.0964,-0.0973,-0.0917,-0.0799,-0.0748,-0.0498,-0.0282,-0.0107,-0.0081,-0.0064,-0.007,-0.0081,-0.0183,-0.0194,-0.0009,0,0,0,0,0,-0.0644,-0.0683,-0.0756,-0.0835,-0.0903,-0.0947,-0.0966,-0.0966,-0.0971,-0.0898,-0.091,-0.0732,-0.0494,-0.0413,-0.0214,-0.0211,-0.0044,0.0024,-0.0026,0.0062,0.0049,-0.0061,0,0,0,0,0,0,-0.0629,-0.0678,-0.0734,-0.0791,-0.0836,-0.0893,-0.0906,-0.0907,-0.0849,-0.0853,-0.0715,-0.07,-0.045,-0.0601,-0.0219,-0.0173,-0.0181,0.0121,0.0125,0.007,0.0057,0.0047,-0.0071,0,0,0,0,0]}]]